This is the latest recevied weather packets stored in our database for station/object F6BIJ-13. If no packets are shown the sender has not sent any weather packets the latest 10 day(s).
| Time | Temp. | Humidity | Pressure | Rain* | Wind** | Luminosity | Snow |
|---|---|---|---|---|---|---|---|
| 1777634317 | 21.11° C | 48% | 1024.1 hPa | 0 mm | - | - | - |
| 1777633957 | 21.11° C | 50% | 1024.1 hPa | 0 mm | - | - | - |
| 1777633597 | 21.11° C | 49% | 1024.2 hPa | 0 mm | - | - | - |
| 1777633238 | 21.11° C | 49% | 1024.2 hPa | 0 mm | - | - | - |
| 1777632878 | 20.56° C | 52% | 1024.2 hPa | 0 mm | - | - | - |
| 1777632517 | 21.11° C | 50% | 1024.4 hPa | 0 mm | - | - | - |
| 1777632157 | 20.56° C | 50% | 1024.4 hPa | 0 mm | - | - | - |
| 1777631797 | 21.11° C | 50% | 1024.5 hPa | 0 mm | - | - | - |
| 1777631437 | 20.56° C | 51% | 1024.5 hPa | 0 mm | - | - | - |
| 1777631077 | 20.56° C | 48% | 1024.6 hPa | 0 mm | - | - | - |
| 1777630717 | 21.11° C | 45% | 1024.6 hPa | 0 mm | - | - | - |
| 1777630357 | 20° C | 50% | 1024.7 hPa | 0 mm | - | - | - |
| 1777629998 | 19.44° C | 48% | 1024.7 hPa | 0 mm | - | - | - |
| 1777629637 | 20° C | 52% | 1024.8 hPa | 0 mm | - | - | - |
| 1777629277 | 19.44° C | 56% | 1024.8 hPa | 0 mm | - | - | - |
| 1777628917 | 19.44° C | 54% | 1024.7 hPa | 0 mm | - | - | - |
| 1777628557 | 19.44° C | 51% | 1024.9 hPa | 0 mm | - | - | - |
| 1777628197 | 20° C | 49% | 1024.9 hPa | 0 mm | - | - | - |
| 1777627837 | 19.44° C | 54% | 1024.9 hPa | 0 mm | - | - | - |
| 1777627477 | 18.89° C | 55% | 1024.9 hPa | 0 mm | - | - | - |
| 1777627117 | 18.89° C | 48% | 1024.9 hPa | 0 mm | - | - | - |
| 1777626757 | 18.33° C | 51% | 1025 hPa | 0 mm | - | - | - |
| 1777626397 | 18.33° C | 48% | 1024.9 hPa | 0 mm | - | - | - |
| 1777626037 | 17.78° C | 49% | 1025 hPa | 0 mm | - | - | - |
| 1777625678 | 17.78° C | 47% | 1024.9 hPa | 0 mm | - | - | - |
* Rain latest 24 hours (hover to see other rain measurements)
** Current wind speed in m/s (hover to see current wind gust speed)